Theta_e
310 309 308 307 307 307 305 304 300 295 294 293 293 294 296 297 296 298 300 300 304 305 305 305 303 302 300 299 299 299 299 299 299 299 300 300 301 301
312 310 309 308 308 308 306 306 305 302 294 294 293 293 295 295 295 297 297 296 298 301 301 301 302 301 299 298 297 297 297 297 297 298 298 298 299 299
312 311 310 310 309 308 307 306 303 300 294 291 292 293 293 294 294 295 295 295 295 297 299 299 299 299 298 298 297 296 296 295 295 296 296 297 297 297
311 311 310 310 308 307 307 304 301 299 295 290 290 291 292 293 294 293 293 293 293 296 298 298 298 297 297 297 297 296 295 294 294 295 295 295 295 295
311 311 310 309 306 306 305 301 299 298 296 292 289 290 291 291 291 291 291 291 291 293 296 296 297 297 297 296 296 295 294 294 294 295 294 294 294 294
309 310 311 309 306 305 302 299 297 295 294 292 289 288 289 288 289 287 286 287 287 290 292 293 294 294 296 296 296 294 294 295 294 294 294 293 294 294
305 306 307 301 298 301 301 298 297 295 293 291 288 286 286 285 286 286 286 285 286 286 286 288 290 290 291 292 291 292 294 295 294 294 294 294 294 294
298 296 297 293 294 294 293 294 297 296 294 293 290 287 286 286 286 285 285 286 286 284 286 286 286 285 285 286 290 292 293 294 294 294 294 294 294 294
296 295 293 292 293 293 292 292 290 292 293 294 291 288 286 286 286 285 285 285 285 285 283 284 283 285 283 285 292 292 293 293 293 293 294 294 294 294
294 294 294 293 293 292 290 288 287 288 288 288 288 286 286 286 287 287 285 283 283 284 285 284 283 283 281 282 290 290 291 291 291 291 291 292 291 291
290 292 293 291 290 291 288 285 284 284 289 289 290 289 289 290 288 284 284 278 282 282 283 283 280 276 276 278 283 288 289 289 289 289 289 289 289 288
287 288 288 289 290 290 286 283 280 279 279 279 280 282 282 283 284 285 284 281 274 282 283 283 280 276 275 277 280 282 283 285 286 287 287 287 288 285
286 285 286 289 289 288 286 282 280 280 280 277 277 277 277 277 276 278 281 282 282 281 281 282 281 277 275 276 279 280 281 280 280 281 284 285 286 286
284 285 286 288 288 288 285 285 283 279 277 276 276 274 274 273 273 274 275 277 277 276 274 276 281 279 279 279 275 278 277 278 279 278 279 282 283 283
285 286 287 286 286 284 284 282 276 276 276 276 275 272 269 267 268 269 270 270 272 273 272 278 279 279 279 277 275 272 272 271 275 275 276 276 276 277
283 281 283 283 282 280 279 280 278 276 276 275 274 268 269 270 269 266 267 266 267 268 269 272 271 279 276 270 270 266 270 266 271 272 273 274 275 276
278 273 273 276 278 278 279 279 277 275 276 273 273 272 271 271 266 265 264 267 265 261 264 267 266 274 275 269 264 263 265 267 269 270 268 268 271 273
273 277 276 278 278 278 277 276 272 269 269 271 269 269 268 269 268 264 265 264 263 257 259 258 259 262 264 269 272 266 263 260 262 265 264 261 265 271
278 278 278 277 277 277 276 273 272 264 264 267 267 267 267 264 265 261 261 263 258 254 254 252 258 256 257 259 261 273 260 260 262 265 259 258 259 264
273 277 275 275 276 275 273 268 265 266 264 265 264 262 261 261 259 258 258 256 253 251 256 255 256 253 263 263 258 260 273 260 257 259 264 259 263 273
276 275 273 271 272 269 267 265 265 263 262 261 257 260 258 262 255 254 257 256 254 251 257 256 257 259 253 254 257 257 258 270 269 258 260 254 256 257
275 274 271 270 269 268 266 265 263 262 261 260 257 257 256 259 256 253 254 258 252 251 252 253 257 257 255 255 251 251 255 258 265 270 272 270 256 257
272 271 270 268 267 266 265 264 262 259 258 258 257 256 255 255 251 253 252 251 251 251 250 253 254 255 251 251 251 251 251 254 256 258 261 270 271 271
Wind_Speed
8 8 8 6 5 5 5 4 5 4 3 1 2 2 2 2 4 3 4 6 8 9 8 7 7 7 2 3 6 7 8 9 10 11 12 12 12 13
7 9 7 6 6 5 5 3 3 3 3 1 1 2 2 3 3 3 3 5 8 8 6 7 7 5 3 4 4 6 8 9 9 10 11 11 11 12
9 9 8 8 6 5 4 3 3 3 4 1 2 1 2 3 3 2 2 3 3 5 5 5 5 6 4 6 6 7 7 9 10 11 12 12 12 12
8 8 8 6 6 5 4 4 4 3 4 4 2 2 2 1 2 2 1 2 2 4 4 3 2 3 3 5 8 8 10 9 11 12 13 13 12 12
8 7 7 6 6 5 5 5 4 3 3 5 4 1 2 2 2 2 2 3 2 4 5 5 5 4 4 3 6 8 8 9 12 12 12 12 12 12
6 6 6 7 7 8 6 6 4 5 6 6 4 3 3 2 2 2 1 2 2 1 1 2 5 6 7 9 10 8 9 10 11 11 10 11 11 10
5 5 5 6 10 8 6 6 6 5 5 4 3 3 2 2 2 1 2 1 2 2 2 3 3 2 3 6 6 9 10 10 10 9 11 12 11 11
6 6 7 11 14 17 17 14 7 6 5 3 3 3 2 2 2 2 1 2 2 1 2 3 5 5 6 5 12 10 9 11 11 10 11 13 12 13
7 7 8 7 12 13 17 17 14 16 11 3 5 3 3 3 5 3 2 2 2 3 3 2 3 4 4 6 20 18 18 16 14 13 13 12 12 12
7 7 11 9 8 12 13 12 11 11 9 6 7 5 5 4 3 3 4 5 3 3 3 3 3 3 3 5 21 20 20 19 19 18 18 18 17 15
8 8 9 10 11 13 14 12 9 8 14 19 20 19 17 12 4 3 3 4 2 3 4 2 2 2 2 3 6 20 22 20 20 20 20 20 19 17
9 10 14 11 13 11 11 9 10 3 4 5 5 10 11 13 17 9 2 4 3 2 4 3 3 2 4 1 5 8 8 19 21 21 21 21 22 8
7 7 6 14 15 14 12 6 6 7 11 8 6 6 6 7 6 6 6 4 4 3 4 1 4 3 3 3 2 7 6 9 9 11 19 22 23 18
8 6 9 18 19 19 13 19 18 11 6 6 6 5 5 5 5 6 7 9 8 6 2 3 3 3 1 2 3 4 3 9 9 9 8 13 18 20
8 15 20 20 21 18 19 16 9 6 5 7 6 3 1 1 0 3 4 6 6 6 5 5 5 3 7 6 2 4 5 4 7 7 7 7 7 7
13 7 14 17 17 12 9 9 5 4 5 6 4 1 1 3 3 1 3 3 4 4 5 8 5 7 8 6 5 4 6 4 6 7 6 4 8 8
10 4 3 4 7 6 6 6 5 4 6 3 5 5 4 4 3 3 3 5 5 1 4 5 7 10 11 5 5 4 5 5 5 7 4 4 5 7
4 5 5 4 6 6 6 6 5 4 3 4 3 3 4 5 5 4 4 5 5 3 3 3 4 3 4 10 15 5 4 3 4 6 4 3 4 7
6 4 6 5 6 5 5 3 3 1 2 4 4 4 5 4 5 3 3 4 5 3 3 2 4 4 4 2 4 17 3 3 5 7 3 1 1 4
3 6 6 6 6 6 6 4 4 4 4 4 4 4 4 4 3 3 4 5 3 2 3 4 5 3 3 3 3 3 16 2 3 4 5 3 5 7
5 6 5 5 5 6 5 4 5 5 4 5 3 4 3 5 5 3 4 5 5 3 5 4 3 4 2 2 5 5 5 14 10 1 5 3 4 5
5 6 5 5 6 7 6 6 5 5 5 5 4 4 3 5 6 3 2 5 3 2 2 2 5 4 5 4 1 3 4 5 8 14 20 14 3 5
5 6 6 6 5 6 6 5 6 5 5 5 5 4 4 5 3 4 4 4 3 3 2 3 4 4 3 3 2 2 5 5 5 7 6 19 18 16
Wind_Direction
127 122 124 129 132 135 138 138 132 144 171 160 119 77 97 81 50 60 70 85 95 84 82 81 97 97 55 12 9 0 1 358 357 355 357 1 9 10
134 126 126 140 146 130 141 129 99 115 122 119 113 147 155 93 97 88 92 92 86 98 106 86 78 72 15 342 339 337 336 340 344 343 345 350 357 1
126 137 141 147 136 133 131 118 98 101 110 108 98 128 119 136 135 111 91 85 72 83 88 70 46 37 28 330 323 313 319 326 331 334 335 337 343 350
129 130 139 126 132 135 133 120 121 107 125 131 125 122 102 128 142 123 81 49 47 15 25 24 42 55 14 347 326 308 313 315 320 327 331 334 336 342
133 130 140 140 123 127 122 112 110 109 110 128 118 123 121 138 96 53 50 33 23 10 5 355 344 326 312 314 325 319 309 309 314 318 326 329 330 335
112 124 130 134 136 132 114 118 116 104 99 108 90 101 82 43 72 93 23 24 339 328 288 304 314 319 322 318 327 308 297 306 310 312 308 310 312 314
90 91 82 98 110 108 125 126 122 104 100 93 94 100 101 106 165 179 123 178 54 21 359 16 350 336 333 317 304 309 309 298 293 293 301 302 300 302
103 78 84 93 88 90 85 76 82 128 130 128 122 123 135 116 112 111 110 46 52 344 50 44 20 14 2 355 350 349 338 331 339 326 316 314 308 302
104 108 91 86 102 99 86 75 61 58 51 117 106 91 119 156 149 147 143 136 106 15 46 64 33 35 353 360 50 44 36 28 18 6 358 340 328 330
83 101 110 105 102 110 97 79 63 55 51 70 96 107 99 113 112 128 133 110 90 51 11 68 11 30 348 10 36 39 38 38 33 25 20 17 9 9
64 68 98 103 104 112 101 100 89 71 74 80 80 79 75 70 89 77 43 77 77 47 22 61 11 343 22 358 23 39 36 30 27 25 21 19 19 12
67 65 78 95 100 112 120 126 108 88 104 67 45 51 46 47 45 49 57 80 95 83 7 37 352 43 11 358 40 30 20 23 22 23 22 27 23 14
83 74 64 85 87 87 82 80 105 118 88 76 69 61 53 48 40 40 42 62 87 78 8 40 25 4 53 344 48 23 26 17 15 15 16 20 22 25
95 85 83 86 87 87 85 98 98 90 86 81 77 59 58 49 36 50 57 64 58 90 323 57 101 51 59 68 6 344 6 26 14 8 3 12 16 22
101 103 101 97 93 84 90 92 80 83 94 88 87 76 87 205 148 51 52 72 80 60 27 27 91 93 75 61 61 350 1 3 7 4 352 2 5 2
101 91 99 96 92 93 80 73 76 78 103 116 109 98 54 49 53 73 82 16 72 6 4 41 62 93 89 76 59 11 12 22 343 357 345 353 12 13
104 73 62 79 89 83 76 74 73 68 89 80 98 97 79 78 32 5 55 61 78 47 347 356 21 74 70 64 62 19 356 4 348 350 351 346 359 8
75 124 112 96 105 113 112 95 56 61 67 96 79 82 93 95 87 39 56 67 84 29 36 342 358 48 33 54 66 27 2 351 328 340 335 16 343 0
119 120 126 129 128 115 109 91 121 54 57 77 87 92 92 71 90 69 74 84 62 41 6 358 27 71 67 64 311 42 58 323 336 359 342 1 272 305
106 135 128 130 129 131 131 120 110 94 82 84 85 93 82 104 83 66 62 99 85 25 38 20 45 57 112 144 154 282 18 349 35 320 341 322 283 5
136 121 120 130 134 124 117 109 120 116 114 111 75 94 94 107 80 56 88 76 96 49 63 17 301 260 165 55 38 336 323 6 36 33 315 43 337 342
131 133 134 132 132 129 126 126 114 111 102 96 94 86 71 91 110 111 80 104 76 107 132 289 349 34 57 83 157 303 321 323 354 29 35 42 101 359
137 131 130 126 128 125 121 117 114 111 106 115 108 100 104 102 83 82 96 88 113 87 49 39 18 32 49 85 109 347 343 336 345 353 357 16 23 17